LAPAN-A3 (41603 NORAD) Tracking and Keplerian Element Data

This shows tracking and keplerian element data for the satellite.

Feedback or suggestion? Click here.




ElementValue
Catalog41603
NameLAPAN-A3
Epoch Orbit13295
Epoch Day318.80649258
Epoch Year2018
RAAN17.4374
Inclination97.3935
Eccentricity0.0015237
Argument of Perigee75.8094
Mean Anonmoly32.0927
Mean Motion15.19632225
Decay Rate1.38E-06
L11 41603U 16040E 18318.80649258 .00000138 00000-0 96602-5 0 9998
L22 41603 97.3935 17.4374 0015237 75.8094 32.0927 15.19632225132958

Live tracking and technical data element details for LAPAN-A3 (NORAD 41603). LAPAN-A3 can be tracked NOW for your location showing map with azimuth and elevation plus other details from your city location.

Track the satellite on the map from your city or location and see movement details for azimuth, elevation, latitude, longitude, range, height, and movement on the map or in text.







IsCatalogInMostPopularTable: catalog: 41603, numindb: 106
Update: records affected: 1



GetName: 41603 LAPAN-A3

Hit Count: updated at: Fri, 16 Nov 2018 05:03:56 GMT